{"data":{"norad_id":40553,"intl_designator":"2015-020B","name":"GONETS-M 12","alt_names":[],"object_type":"PAYLOAD","status":"ACTIVE","operator":null,"country":"CIS","launch_date":"2015-03-31","launch_site_code":"PLMSC","launch_vehicle":null,"mission":null,"orbit_class":"UNKNOWN","rcs_meters":1.5906,"size_class":null,"mass_kg":null,"dimensions":null,"purposes":[],"wikipedia_slug":null,"has_3d_model":false,"image_url":null,"decayed_at":null,"tle_current":{"epoch":"2026-09-20T05:01:40.069056Z","epoch_age_seconds":66435,"freshness":"FRESH","line1":"1 40553U 15020B   26263.20949154  .00000050  00000+0  28917-3 0  9992","line2":"2 40553  82.4938 332.9419 0016173 137.6489 222.5843 12.42893986520533","mean_motion":12.42893986,"eccentricity":0.0016173,"inclination_deg":82.4938,"raan_deg":332.9419,"arg_perigee_deg":137.6489,"mean_anomaly_deg":222.5843,"bstar":0.00028917,"rev_number":52053,"period_min":115.85863446281,"perigee_km":1481.6268413987,"apogee_km":1507.0912170548,"semimajor_km":7872.4960292267,"source":"CELESTRAK","updated_at":"2026-09-20T09:00:14.067641Z"}}}